UTCDateTime,current_temp_f,current_humidity,current_dewpoint_f,pm1_0_atm,pm2_5_atm,pm10_0_atm,pm1_0_cf_1,pm2_5_cf_1,pm10_0_cf_1
2019/04/01T00:00:42z,41,28,10.35,1.43,3.27,4.2,1.43,3.27,4.2
2019/04/01T00:02:02z,41,28,10.35,1.82,2.71,3.36,1.82,2.71,3.36
2019/04/01T00:03:22z,40,28,9.48,2.11,3.57,3.74,2.11,3.57,3.74
2019/04/01T00:04:42z,40,28,9.48,2.15,3.15,4.22,2.15,3.15,4.22
2019/04/01T00:06:04z,41,29,11.14,1.98,3.11,3.5,1.98,3.11,3.5
2019/04/01T00:07:22z,41,29,11.14,2.28,3.61,5.54,2.28,3.61,5.54
2019/04/01T00:07:54z,41,29,11.14,1.73,1.8,1.8,1.73,1.8,1.8
2019/04/01T00:09:12z,41,29,11.14,2.87,3.7,3.89,2.87,3.7,3.89
2019/04/01T00:10:32z,41,29,11.14,2.51,3.77,4.83,2.51,3.77,4.83
2019/04/01T00:11:52z,41,28,10.35,2.18,3.22,4.71,2.18,3.22,4.71
2019/04/01T00:13:12z,41,29,11.14,2.57,3.95,5.52,2.57,3.95,5.52
2019/04/01T00:14:32z,41,29,11.14,2.64,4.38,6.47,2.64,4.38,6.47
2019/04/01T00:15:52z,40,29,10.27,2.09,3.38,4.44,2.09,3.38,4.44
2019/04/01T00:17:12z,41,29,11.14,1.87,4,4.62,1.87,4,4.62
2019/04/01T00:18:34z,40,29,10.27,2.18,3.64,5.09,2.18,3.64,5.09
2019/04/01T00:19:52z,41,29,11.14,2.37,3.67,4.39,2.37,3.67,4.39
2019/04/01T00:20:25z,40,29,10.27,1.27,1.6,1.6,1.27,1.6,1.6
2019/04/01T00:21:43z,41,29,11.14,1.48,3.04,3.7,1.48,3.04,3.7
2019/04/01T00:23:03z,41,29,11.14,2.76,3.78,5.49,2.76,3.78,5.49
2019/04/01T00:24:23z,40,29,10.27,2.46,3.83,5.3,2.46,3.83,5.3
2019/04/01T00:25:43z,39,29,9.4,2.33,4.31,4.89,2.33,4.31,4.89
2019/04/01T00:27:03z,40,29,10.27,2.36,3.96,5.91,2.36,3.96,5.91
2019/04/01T00:28:23z,40,30,11.03,2.52,4.24,5.5,2.52,4.24,5.5
2019/04/01T00:29:43z,40,30,11.03,2.81,4.72,5.4,2.81,4.72,5.4
2019/04/01T00:31:05z,39,30,10.15,2.59,4.28,4.28,2.59,4.28,4.28
2019/04/01T00:32:23z,40,30,11.03,2.3,3.61,6.83,2.3,3.61,6.83
2019/04/01T00:32:56z,40,30,11.03,1.67,2.2,3.07,1.67,2.2,3.07
2019/04/01T00:34:13z,39,30,10.15,2.78,4.54,6.61,2.78,4.54,6.61
2019/04/01T00:35:33z,40,30,11.03,5.57,9.57,11.3,5.57,9.57,11.3
2019/04/01T00:36:53z,40,30,11.03,19.19,28.7,34.56,17.53,26.58,33.05
2019/04/01T00:38:13z,39,30,10.15,5.93,10.22,12.93,5.93,10.22,12.93
2019/04/01T00:39:33z,39,30,10.15,12.24,17.8,19.93,12.24,17.8,19.93
2019/04/01T00:40:53z,39,30,10.15,7.49,10.33,10.96,7.49,10.33,10.96
2019/04/01T00:42:13z,39,30,10.15,6.27,10,10.45,6.27,10,10.45
2019/04/01T00:43:36z,39,31,10.89,5.33,8.46,8.61,5.33,8.46,8.61
2019/04/01T00:44:53z,39,31,10.89,10.17,12.85,14.91,10.17,12.85,14.91
2019/04/01T00:45:26z,39,31,10.89,6.07,7,7,6.07,7,7
2019/04/01T00:46:44z,39,31,10.89,8.46,11.43,13.39,8.46,11.43,13.39
2019/04/01T00:48:04z,38,31,10.01,8.62,11.15,13.15,8.62,11.15,13.15
2019/04/01T00:49:24z,39,31,10.89,11.22,15.56,15.83,11.22,15.56,15.83
2019/04/01T00:50:44z,38,31,10.01,6.32,8.91,9.36,6.32,8.91,9.36
2019/04/01T00:52:04z,39,31,10.89,7.04,10.13,11.59,7.04,10.13,11.59
2019/04/01T00:53:24z,38,31,10.01,7.78,11.24,12.98,7.78,11.24,12.98
2019/04/01T00:54:44z,39,31,10.89,12.64,16.84,19.09,12.64,16.84,19.09
2019/04/01T00:56:06z,38,31,10.01,5.67,8.04,10.63,5.67,8.04,10.63
2019/04/01T00:57:24z,39,31,10.89,4,7.05,7.05,4,7.05,7.05
2019/04/01T00:57:57z,39,31,10.89,2.43,2.43,3.79,2.43,2.43,3.79
2019/04/01T00:59:15z,39,32,11.61,3.91,6.71,6.87,3.91,6.71,6.87
2019/04/01T01:00:35z,39,32,11.61,4.64,7.7,9,4.64,7.7,9
2019/04/01T01:01:55z,38,32,10.72,7.73,10.89,11.76,7.73,10.89,11.76
2019/04/01T01:03:15z,39,32,11.61,5.55,8.77,10.41,5.55,8.77,10.41
2019/04/01T01:04:35z,39,32,11.61,5.87,8.13,10.89,5.87,8.13,10.89
2019/04/01T01:05:55z,39,32,11.61,3.63,6.59,8.8,3.63,6.59,8.8
2019/04/01T01:07:15z,39,32,11.61,3.28,5.74,6,3.28,5.74,6
2019/04/01T01:08:37z,39,32,11.61,5.24,7.78,9.76,5.24,7.78,9.76
2019/04/01T01:09:55z,39,32,11.61,3.54,6.74,9.37,3.54,6.74,9.37
2019/04/01T01:10:27z,38,32,10.72,1.6,2.33,2.33,1.6,2.33,2.33
2019/04/01T01:11:45z,39,32,11.61,3.91,6.59,7.59,3.91,6.59,7.59
2019/04/01T01:13:05z,39,32,11.61,3.91,6.89,7.89,3.91,6.89,7.89
2019/04/01T01:14:25z,38,32,10.72,4.32,7.55,9,4.32,7.55,9
2019/04/01T01:15:45z,38,32,10.72,4.3,6.91,9.48,4.3,6.91,9.48
2019/04/01T01:17:05z,38,32,10.72,4.15,7.2,9.5,4.15,7.2,9.5
2019/04/01T01:18:25z,38,32,10.72,4.49,6.38,7.36,4.49,6.38,7.36
2019/04/01T01:19:45z,38,32,10.72,5.69,8.4,10.18,5.69,8.4,10.18
2019/04/01T01:21:07z,39,32,11.61,5.64,7.69,9.6,5.64,7.69,9.6
2019/04/01T01:22:25z,38,32,10.72,7.2,10,12.67,7.2,10,12.67
2019/04/01T01:22:58z,38,32,10.72,6.2,8.07,8.8,6.2,8.07,8.8
2019/04/01T01:24:16z,38,32,10.72,7.33,10.7,11.41,7.33,10.7,11.41
2019/04/01T01:25:36z,38,33,11.42,10.7,14.3,14.66,10.7,14.3,14.66
2019/04/01T01:26:56z,37,33,10.53,12.59,15.93,17.02,12.59,15.93,17.02
2019/04/01T01:28:16z,38,33,11.42,13.2,17.38,17.82,13.2,17.38,17.82
2019/04/01T01:29:36z,38,33,11.42,13.02,16,17.11,13.02,16,17.11
2019/04/01T01:30:56z,38,33,11.42,8.2,10.39,12.15,8.2,10.39,12.15
2019/04/01T01:32:16z,38,33,11.42,7.18,9.71,11.49,7.18,9.71,11.49
2019/04/01T01:33:38z,38,33,11.42,6.49,8.64,11.49,6.49,8.64,11.49
2019/04/01T01:34:56z,38,33,11.42,6.04,9.54,11.74,6.04,9.54,11.74
2019/04/01T01:35:28z,38,33,11.42,5.6,5.93,7.8,5.6,5.93,7.8
2019/04/01T01:36:46z,37,33,10.53,5.28,7.57,8.59,5.28,7.57,8.59
2019/04/01T01:38:06z,38,33,11.42,5.72,8.09,8.3,5.72,8.09,8.3
2019/04/01T01:39:26z,38,34,12.09,5.68,7.83,9.72,5.68,7.83,9.72
2019/04/01T01:40:46z,38,33,11.42,6.11,7.93,9.15,6.11,7.93,9.15
2019/04/01T01:42:06z,38,33,11.42,4.04,7.13,7.93,4.04,7.13,7.93
2019/04/01T01:43:26z,38,33,11.42,5.16,7.31,7.4,5.16,7.31,7.4
2019/04/01T01:44:46z,38,33,11.42,4.76,7.82,9.27,4.76,7.82,9.27
2019/04/01T01:46:08z,37,33,10.53,5.36,8,9.07,5.36,8,9.07
2019/04/01T01:47:26z,38,33,11.42,3.65,6.46,7.76,3.65,6.46,7.76
2019/04/01T01:47:59z,38,33,11.42,2.4,3.27,3.27,2.4,3.27,3.27
2019/04/01T01:49:17z,38,33,11.42,4.13,6.93,8.28,4.13,6.93,8.28
2019/04/01T01:50:37z,37,33,10.53,5,7.55,8.64,5,7.55,8.64
2019/04/01T01:51:57z,38,33,11.42,5.47,7.96,8.34,5.47,7.96,8.34
2019/04/01T01:53:17z,38,34,12.09,3.98,6.93,7.24,3.98,6.93,7.24
2019/04/01T01:54:37z,37,34,11.2,5.26,8.17,9.11,5.26,8.17,9.11
2019/04/01T01:55:57z,37,34,11.2,4.31,7.09,7.73,4.31,7.09,7.73
2019/04/01T01:57:17z,37,34,11.2,4.82,6.91,8.05,4.82,6.91,8.05
2019/04/01T01:58:39z,37,34,11.2,4.02,6.51,6.96,4.02,6.51,6.96
2019/04/01T01:59:57z,38,34,12.09,4.39,7.33,9.57,4.39,7.33,9.57
2019/04/01T02:00:30z,37,34,11.2,4.67,5.07,5.07,4.67,5.07,5.07
2019/04/01T02:01:47z,37,34,11.2,4.52,6.8,7.3,4.52,6.8,7.3
2019/04/01T02:03:07z,38,34,12.09,4.38,7.17,7.74,4.38,7.17,7.74
2019/04/01T02:04:27z,38,34,12.09,4.11,6.15,6.98,4.11,6.15,6.98
2019/04/01T02:05:47z,38,34,12.09,3.64,6.11,7.4,3.64,6.11,7.4
2019/04/01T02:07:07z,37,34,11.2,5.47,7.69,9.87,5.47,7.69,9.87
2019/04/01T02:08:27z,35,34,9.43,4.54,6.8,7.78,4.54,6.8,7.78
2019/04/01T02:09:47z,37,34,11.2,3.87,6.47,6.47,3.87,6.47,6.47
2019/04/01T02:11:10z,37,34,11.2,3.67,6.38,7.24,3.67,6.38,7.24
2019/04/01T02:12:27z,37,34,11.2,3.86,6.39,7.84,3.86,6.39,7.84
2019/04/01T02:13:00z,36,34,10.32,3,3.8,3.8,3,3.8,3.8
2019/04/01T02:14:18z,37,34,11.2,3.78,6.39,6.65,3.78,6.39,6.65
2019/04/01T02:15:38z,37,34,11.2,4,7.27,8.29,4,7.27,8.29
2019/04/01T02:16:58z,37,34,11.2,3.57,5.87,6.89,3.57,5.87,6.89
2019/04/01T02:18:18z,37,34,11.2,5.18,7.58,9.31,5.18,7.58,9.31
2019/04/01T02:19:38z,37,34,11.2,4.18,6.36,8.42,4.18,6.36,8.42
2019/04/01T02:20:58z,37,34,11.2,3.2,6.38,7.62,3.2,6.38,7.62
2019/04/01T02:22:18z,37,34,11.2,3.28,5.85,5.98,3.28,5.85,5.98
2019/04/01T02:23:40z,36,34,10.32,4.3,6.34,7.45,4.3,6.34,7.45
2019/04/01T02:24:58z,37,34,11.2,3.09,5.8,7.24,3.09,5.8,7.24
2019/04/01T02:25:31z,37,34,11.2,4.07,5.73,5.73,4.07,5.73,5.73
2019/04/01T02:26:48z,37,34,11.2,4.48,7.17,8.76,4.48,7.17,8.76
2019/04/01T02:28:08z,37,34,11.2,3.57,6.91,8.54,3.57,6.91,8.54
2019/04/01T02:29:28z,37,34,11.2,5.07,7.59,8.91,5.07,7.59,8.91
2019/04/01T02:30:48z,37,35,11.86,3.87,6.3,9.26,3.87,6.3,9.26
2019/04/01T02:32:08z,37,35,11.86,5.5,7.17,7.8,5.5,7.17,7.8
2019/04/01T02:33:28z,27,35,2.95,4,6.2,8.15,4,6.2,8.15
2019/04/01T02:34:48z,36,35,10.97,3.67,7.22,7.22,3.67,7.22,7.22
2019/04/01T02:36:11z,37,35,11.86,4.39,6.82,7.18,4.39,6.82,7.18
2019/04/01T02:37:28z,36,35,10.97,4.65,7.83,8.57,4.65,7.83,8.57
2019/04/01T02:38:01z,37,35,11.86,3.87,4.53,4.53,3.87,4.53,4.53
2019/04/01T02:39:19z,36,35,10.97,4.7,5.89,7.76,4.7,5.89,7.76
2019/04/01T02:40:39z,37,35,11.86,4.67,6.6,6.6,4.67,6.6,6.6
2019/04/01T02:41:59z,37,35,11.86,4.39,6.83,7,4.39,6.83,7
2019/04/01T02:43:19z,36,35,10.97,4.67,6.42,6.98,4.67,6.42,6.98
2019/04/01T02:44:39z,36,35,10.97,4.15,6,6.81,4.15,6,6.81
2019/04/01T02:45:59z,36,35,10.97,4.41,7.15,8.17,4.41,7.15,8.17
2019/04/01T02:47:19z,37,36,12.5,5.16,6.13,7.82,5.16,6.13,7.82
2019/04/01T02:48:41z,37,36,12.5,4.61,6.89,9.22,4.61,6.89,9.22
2019/04/01T02:49:59z,19,35,-4.19,3.91,6.43,7.89,3.91,6.43,7.89
2019/04/01T02:50:32z,37,35,11.86,2.6,3.13,3.13,2.6,3.13,3.13
2019/04/01T02:51:50z,35,35,10.08,4.15,5.54,6.78,4.15,5.54,6.78
2019/04/01T02:53:10z,36,35,10.97,3.41,6.83,8.41,3.41,6.83,8.41
2019/04/01T02:54:30z,36,36,11.6,3.82,7.4,8.04,3.82,7.4,8.04
2019/04/01T02:55:50z,36,36,11.6,3.3,6.24,7.85,3.3,6.24,7.85
2019/04/01T02:57:10z,36,36,11.6,4.28,6.72,8.74,4.28,6.72,8.74
2019/04/01T02:58:30z,36,36,11.6,3.35,6.35,6.85,3.35,6.35,6.85
2019/04/01T02:59:50z,36,36,11.6,3.84,7.4,8.13,3.84,7.4,8.13
2019/04/01T03:01:12z,36,36,11.6,3.52,6.85,7.89,3.52,6.85,7.89
2019/04/01T03:02:30z,36,36,11.6,3.59,6.26,7.57,3.59,6.26,7.57
2019/04/01T03:03:02z,36,36,11.6,4.47,5.33,5.33,4.47,5.33,5.33
2019/04/01T03:04:20z,36,36,11.6,4.07,6.33,7.8,4.07,6.33,7.8
2019/04/01T03:05:40z,36,36,11.6,4.52,6.63,6.63,4.52,6.63,6.63
2019/04/01T03:07:00z,36,36,11.6,4.16,7.84,10.02,4.16,7.84,10.02
2019/04/01T03:08:20z,36,37,12.22,4.54,7.17,8.22,4.54,7.17,8.22
2019/04/01T03:09:40z,37,36,12.5,4.36,6.33,7.42,4.36,6.33,7.42
2019/04/01T03:11:00z,37,37,13.12,4.76,7.07,9.22,4.76,7.07,9.22
2019/04/01T03:12:20z,37,36,12.5,5.82,8.24,11.04,5.82,8.24,11.04
2019/04/01T03:13:42z,36,37,12.22,4.59,6.61,7.22,4.59,6.61,7.22
2019/04/01T03:15:00z,36,37,12.22,5.22,7.74,8.11,5.22,7.74,8.11
2019/04/01T03:15:33z,36,37,12.22,3.53,4.53,5.67,3.53,4.53,5.67
2019/04/01T03:16:51z,35,37,11.33,4.5,6.41,7.57,4.5,6.41,7.57
2019/04/01T03:18:11z,36,37,12.22,4.65,6.91,8.61,4.65,6.91,8.61
2019/04/01T03:19:31z,36,37,12.22,5,6.67,8.13,5,6.67,8.13
2019/04/01T03:20:51z,36,38,12.83,5.07,7.02,8.72,5.07,7.02,8.72
2019/04/01T03:22:11z,36,38,12.83,5.4,7.36,10.11,5.4,7.36,10.11
2019/04/01T03:23:31z,35,38,11.93,5.43,7.83,10.2,5.43,7.83,10.2
2019/04/01T03:24:51z,36,39,13.42,5.45,8.5,9.52,5.45,8.5,9.52
2019/04/01T03:26:13z,36,39,13.42,5.84,8.24,10.16,5.84,8.24,10.16
2019/04/01T03:27:31z,36,39,13.42,5.59,9.13,10.78,5.59,9.13,10.78
2019/04/01T03:28:04z,36,39,13.42,4.57,5.93,8.21,4.57,5.93,8.21
2019/04/01T03:29:22z,36,39,13.42,5.07,7.24,9.31,5.07,7.24,9.31
2019/04/01T03:30:42z,36,39,13.42,4.65,6.46,7.59,4.65,6.46,7.59
2019/04/01T03:32:02z,36,39,13.42,5.53,8.6,9.36,5.53,8.6,9.36
2019/04/01T03:33:22z,36,39,13.42,4.87,7.17,8.26,4.87,7.17,8.26
2019/04/01T03:34:42z,36,39,13.42,4.93,7.2,9.13,4.93,7.2,9.13
2019/04/01T03:36:02z,35,40,13.09,5.85,8.26,8.76,5.85,8.26,8.76
2019/04/01T03:37:22z,36,40,13.99,4.27,7.14,9.59,4.27,7.14,9.59
2019/04/01T03:38:44z,36,40,13.99,5.36,8.04,8.76,5.36,8.04,8.76
2019/04/01T03:40:02z,36,40,13.99,5.16,7.73,8.13,5.16,7.73,8.13
2019/04/01T03:40:34z,36,40,13.99,2.71,4.14,4.14,2.71,4.14,4.14
2019/04/01T03:41:52z,35,40,13.09,6,8.53,10.89,6,8.53,10.89
2019/04/01T03:43:12z,36,40,13.99,4.35,7.78,9.54,4.35,7.78,9.54
2019/04/01T03:44:32z,35,40,13.09,5.31,7.6,9.27,5.31,7.6,9.27
2019/04/01T03:45:52z,35,40,13.09,5.33,7.57,10.09,5.33,7.57,10.09
2019/04/01T03:47:12z,35,40,13.09,5.17,7.23,9.51,5.17,7.23,9.51
2019/04/01T03:48:32z,35,40,13.09,5.72,7.76,9.5,5.72,7.76,9.5
2019/04/01T03:49:52z,36,41,14.56,6.29,9.91,11.73,6.29,9.91,11.73
2019/04/01T03:51:14z,36,41,14.56,5.87,7.93,10.04,5.87,7.93,10.04
2019/04/01T03:52:32z,36,40,13.99,6.11,8.17,9.35,6.11,8.17,9.35
2019/04/01T03:53:05z,36,40,13.99,4.67,5.67,7.2,4.67,5.67,7.2
2019/04/01T03:54:23z,36,40,13.99,5.89,9.09,11.17,5.89,9.09,11.17
2019/04/01T03:55:43z,36,40,13.99,6.74,11.02,13.91,6.74,11.02,13.91
2019/04/01T03:57:03z,36,40,13.99,6.22,10.2,10.96,6.22,10.2,10.96
2019/04/01T03:58:23z,36,40,13.99,7.81,15.02,18.19,7.81,15.02,18.19
2019/04/01T03:59:43z,36,40,13.99,12.06,22.25,28.04,12.06,22.25,28.04
2019/04/01T04:01:03z,36,40,13.99,16.09,28.7,39.78,16.09,28.7,39.78
2019/04/01T04:02:23z,35,40,13.09,20.87,41.13,53.91,20.87,39.49,53.51
2019/04/01T04:03:45z,36,39,13.42,26.66,45.82,67.11,25.36,42.14,62.86
2019/04/01T04:05:03z,36,39,13.42,32.65,61.41,83.74,29.26,51.33,72.63
2019/04/01T04:05:36z,36,39,13.42,9.93,26.53,34.6,9.93,26.53,34.6
2019/04/01T04:06:53z,36,39,13.42,30.47,54.36,73.6,27.77,47.49,66.85
2019/04/01T04:08:13z,36,39,13.42,27.16,50.42,67,25.93,45.19,62.98
2019/04/01T04:09:33z,36,39,13.42,31.32,58.53,78,28.7,49.68,69.36
2019/04/01T04:10:53z,36,39,13.42,37.78,72.4,100.02,32.16,56.2,80.89
2019/04/01T04:12:13z,36,39,13.42,35.52,68.36,97.68,30.61,54.64,79.95
2019/04/01T04:13:33z,36,39,13.42,34.59,63.64,84.09,30.14,52.45,72.73
2019/04/01T04:14:53z,35,39,12.52,25.89,49.39,66.3,24.93,44.43,62.48
2019/04/01T04:16:16z,36,39,13.42,22.54,39.65,51.87,22.33,38.24,50.98
2019/04/01T04:17:33z,36,39,13.42,12.6,22.35,31.75,12.6,22.35,31.75
2019/04/01T04:18:06z,34,39,11.62,11.6,17.6,22.2,11.6,17.6,22.2
2019/04/01T04:19:24z,35,40,13.09,13.38,23.04,29.38,13.38,23.04,29.38
2019/04/01T04:20:44z,36,40,13.99,9.57,16.64,21.95,9.57,16.64,21.95
2019/04/01T04:22:04z,36,40,13.99,6.76,11,15.26,6.76,11,15.26
2019/04/01T04:23:24z,35,40,13.09,6.96,10.81,12.19,6.96,10.81,12.19
2019/04/01T04:24:44z,35,40,13.09,6.5,10.62,11.29,6.5,10.62,11.29
2019/04/01T04:26:04z,35,41,13.65,6.48,10.83,14.41,6.48,10.83,14.41
2019/04/01T04:27:24z,36,41,14.56,5.8,8.89,10.82,5.8,8.89,10.82
2019/04/01T04:28:46z,36,41,14.56,3.58,5.96,7.6,3.58,5.96,7.6
2019/04/01T04:30:04z,36,41,14.56,3.34,5.98,6.94,3.34,5.98,6.94
2019/04/01T04:30:37z,35,41,13.65,3,4.53,5.67,3,4.53,5.67
UTCDateTime,current_temp_f,current_humidity,current_dewpoint_f,pm1_0_atm,pm2_5_atm,pm10_0_atm,pm1_0_cf_1,pm2_5_cf_1,pm10_0_cf_1
2019/04/01T04:31:55z,35,41,13.65,3.43,5.98,8.37,3.43,5.98,8.37
2019/04/01T04:33:15z,34,41,12.75,5,6.57,6.87,5,6.57,6.87
2019/04/01T04:34:35z,35,41,13.65,5.48,7.36,9.77,5.48,7.36,9.77
2019/04/01T04:35:55z,36,41,14.56,4.71,7.36,8.2,4.71,7.36,8.2
2019/04/01T04:37:15z,36,40,13.99,4.37,5.98,8.13,4.37,5.98,8.13
2019/04/01T04:38:35z,36,40,13.99,4.64,6.8,10.09,4.64,6.8,10.09
2019/04/01T04:39:55z,36,40,13.99,5.37,7.83,10.72,5.37,7.83,10.72
2019/04/01T04:41:17z,36,40,13.99,4.52,6.7,7.2,4.52,6.7,7.2
2019/04/01T04:42:35z,36,40,13.99,6,9.72,11.3,6,9.72,11.3
2019/04/01T04:43:07z,36,40,13.99,5.4,6.4,7.93,5.4,6.4,7.93
2019/04/01T04:44:25z,36,40,13.99,5.96,8.17,9.13,5.96,8.17,9.13
2019/04/01T04:45:45z,36,40,13.99,5.85,9.02,10.24,5.85,9.02,10.24
2019/04/01T04:47:05z,36,41,14.56,6.51,10.53,12.91,6.51,10.53,12.91
2019/04/01T04:48:25z,35,41,13.65,8.07,15.02,18.07,8.07,15.02,18.07
2019/04/01T04:49:45z,36,41,14.56,7.27,13.11,15.36,7.27,13.11,15.36
2019/04/01T04:51:05z,36,41,14.56,7.28,13.09,15.78,7.28,13.09,15.78
2019/04/01T04:52:25z,36,41,14.56,8.35,15.04,20.17,8.35,15.04,20.17
2019/04/01T04:53:47z,36,41,14.56,9.36,14.73,19.8,9.36,14.73,19.8
2019/04/01T04:55:05z,35,41,13.65,8.52,14.3,19.22,8.52,14.3,19.22
2019/04/01T04:55:38z,36,42,15.11,6.53,9.27,9.73,6.53,9.27,9.73
2019/04/01T04:56:56z,36,42,15.11,7.98,13.82,16.51,7.98,13.82,16.51
2019/04/01T04:58:16z,36,42,15.11,10.5,15.43,17.74,10.5,15.43,17.74
2019/04/01T04:59:36z,36,42,15.11,8.39,14.09,20.24,8.39,14.09,20.24
2019/04/01T05:00:56z,35,42,14.2,8.96,15.52,21.78,8.96,15.52,21.78
2019/04/01T05:02:16z,36,42,15.11,6.79,11.74,15.32,6.79,11.74,15.32
2019/04/01T05:03:36z,36,42,15.11,7.24,10.87,13.62,7.24,10.87,13.62
2019/04/01T05:04:56z,36,42,15.11,6.61,9.74,12.22,6.61,9.74,12.22
2019/04/01T05:06:18z,35,42,14.2,7.83,11.61,12.91,7.83,11.61,12.91
2019/04/01T05:07:36z,35,42,14.2,7.54,13.02,16.15,7.54,13.02,16.15
2019/04/01T05:08:08z,36,43,15.65,4.73,5.67,5.67,4.73,5.67,5.67
2019/04/01T05:09:26z,36,43,15.65,6.52,10.93,12.54,6.52,10.93,12.54
2019/04/01T05:10:46z,36,43,15.65,7.67,12.49,15.07,7.67,12.49,15.07
2019/04/01T05:12:06z,36,43,15.65,8.54,14.78,17.54,8.54,14.78,17.54
2019/04/01T05:13:26z,36,43,15.65,9.7,15.28,20.09,9.7,15.28,20.09
2019/04/01T05:14:46z,36,43,15.65,7.51,13.51,16,7.51,13.51,16
2019/04/01T05:16:06z,36,42,15.11,6.87,12.2,13.93,6.87,12.2,13.93
2019/04/01T05:17:26z,36,42,15.11,6.11,10.31,12.24,6.11,10.31,12.24
2019/04/01T05:18:48z,36,42,15.11,6.96,10.67,12.22,6.96,10.67,12.22
2019/04/01T05:20:06z,36,42,15.11,6.37,10.07,11.83,6.37,10.07,11.83
2019/04/01T05:20:39z,36,42,15.11,5,8,9.67,5,8,9.67
2019/04/01T05:21:57z,36,42,15.11,6.09,10.04,13.54,6.09,10.04,13.54
2019/04/01T05:23:17z,36,42,15.11,6.48,10.07,12.52,6.48,10.07,12.52
2019/04/01T05:24:37z,36,42,15.11,6.48,10.22,12.43,6.48,10.22,12.43
2019/04/01T05:25:57z,36,42,15.11,6.73,10.93,13.11,6.73,10.93,13.11
2019/04/01T05:27:17z,36,42,15.11,7,11.36,13.69,7,11.36,13.69
2019/04/01T05:28:37z,36,43,15.65,6.73,10.91,13.5,6.73,10.91,13.5
2019/04/01T05:29:57z,36,43,15.65,5.96,11.49,13,5.96,11.49,13
2019/04/01T05:31:19z,36,43,15.65,6.74,12.17,14.72,6.74,12.17,14.72
2019/04/01T05:32:37z,37,43,16.56,7.78,14.6,17.56,7.78,14.6,17.56
2019/04/01T05:33:10z,37,43,16.56,6.87,9.8,11.8,6.87,9.8,11.8
2019/04/01T05:34:27z,37,43,16.56,7.15,11.41,13.13,7.15,11.41,13.13
2019/04/01T05:35:47z,36,43,15.65,5.96,8.67,12,5.96,8.67,12
2019/04/01T05:37:07z,37,43,16.56,5.13,8.42,9.69,5.13,8.42,9.69
2019/04/01T05:38:27z,37,43,16.56,5.37,9.67,12.43,5.37,9.67,12.43
2019/04/01T05:39:47z,37,43,16.56,5.87,9.64,11.96,5.87,9.64,11.96
2019/04/01T05:41:08z,36,43,15.65,6.15,8.57,10.48,6.15,8.57,10.48
2019/04/01T05:42:28z,36,43,15.65,6.78,10.22,12.6,6.78,10.22,12.6
2019/04/01T05:43:50z,35,43,14.74,7.39,12.85,15.28,7.39,12.85,15.28
2019/04/01T05:45:08z,36,43,15.65,7.17,10.76,13.63,7.17,10.76,13.63
2019/04/01T05:45:40z,35,43,14.74,5.07,5.8,7.6,5.07,5.8,7.6
2019/04/01T05:46:58z,36,43,15.65,7.07,11.67,13.8,7.07,11.67,13.8
2019/04/01T05:48:18z,35,43,14.74,7.54,10.98,13.7,7.54,10.98,13.7
2019/04/01T05:49:38z,36,43,15.65,7.54,12.8,15.89,7.54,12.8,15.89
2019/04/01T05:50:58z,35,42,14.2,7.6,14.13,15.8,7.6,14.13,15.8
2019/04/01T05:52:18z,36,42,15.11,8.53,13.68,17.3,8.53,13.68,17.3
2019/04/01T05:53:38z,36,42,15.11,8.17,11.7,14.96,8.17,11.7,14.96
2019/04/01T05:54:58z,36,42,15.11,7.72,13.5,15.63,7.72,13.5,15.63
2019/04/01T05:56:20z,36,42,15.11,7.49,12.33,14.76,7.49,12.33,14.76
2019/04/01T05:57:38z,36,43,15.65,7.04,11,14.29,7.04,11,14.29
2019/04/01T05:58:11z,36,43,15.65,7.87,9.8,11.47,7.87,9.8,11.47
2019/04/01T05:59:29z,35,42,14.2,8.17,12.11,14.11,8.17,12.11,14.11
2019/04/01T06:00:49z,36,42,15.11,7.39,11.13,11.8,7.39,11.13,11.8
2019/04/01T06:02:09z,36,42,15.11,6.72,11.19,12.6,6.72,11.19,12.6
2019/04/01T06:03:29z,36,43,15.65,7.85,12.7,14.39,7.85,12.7,14.39
UTCDateTime,current_temp_f,current_humidity,current_dewpoint_f,pm1_0_atm,pm2_5_atm,pm10_0_atm,pm1_0_cf_1,pm2_5_cf_1,pm10_0_cf_1
2019/04/01T06:04:49z,36,43,15.65,7.89,11.35,12.67,7.89,11.35,12.67
2019/04/01T06:06:09z,36,43,15.65,7.32,11.05,12.75,7.32,11.05,12.75
2019/04/01T06:07:29z,36,43,15.65,7.04,11.37,12.65,7.04,11.37,12.65
2019/04/01T06:08:51z,36,43,15.65,7.91,13.04,15.59,7.91,13.04,15.59
2019/04/01T06:10:09z,37,43,16.56,7.2,11.34,12.23,7.2,11.34,12.23
2019/04/01T06:10:41z,37,43,16.56,7.2,9.47,14.2,7.2,9.47,14.2
2019/04/01T06:11:59z,36,43,15.65,7.7,12.3,15.52,7.7,12.3,15.52
2019/04/01T06:13:19z,37,43,16.56,7.68,11.53,13.34,7.68,11.53,13.34
2019/04/01T06:14:39z,36,43,15.65,6.93,10.04,13.46,6.93,10.04,13.46
2019/04/01T06:15:59z,37,43,16.56,6.96,10.89,12.37,6.96,10.89,12.37
2019/04/01T06:17:19z,37,43,16.56,6.73,10.16,11.93,6.73,10.16,11.93
2019/04/01T06:18:39z,37,43,16.56,7.11,10.4,12.87,7.11,10.4,12.87
2019/04/01T06:19:59z,35,43,14.74,5.72,7.96,9,5.72,7.96,9
2019/04/01T06:21:21z,35,43,14.74,6.94,10.27,11.65,6.94,10.27,11.65
2019/04/01T06:22:39z,36,44,16.18,6.76,9.61,11.41,6.76,9.61,11.41
2019/04/01T06:23:12z,36,44,16.18,4.73,5.27,7.2,4.73,5.27,7.2
2019/04/01T06:24:30z,36,44,16.18,5.87,8.85,11.17,5.87,8.85,11.17
2019/04/01T06:25:50z,36,44,16.18,6.78,9.22,9.96,6.78,9.22,9.96
2019/04/01T06:27:10z,36,44,16.18,6.65,10.84,12.58,6.65,10.84,12.58
2019/04/01T06:28:30z,37,44,17.09,7.37,10.67,13,7.37,10.67,13
2019/04/01T06:29:50z,37,44,17.09,6.58,9.22,11.38,6.58,9.22,11.38
2019/04/01T06:31:10z,36,43,15.65,6.82,10.16,13.51,6.82,10.16,13.51
2019/04/01T06:32:30z,37,44,17.09,8.2,13.42,16.07,8.2,13.42,16.07
2019/04/01T06:33:52z,37,44,17.09,8.78,13.5,15.2,8.78,13.5,15.2
2019/04/01T06:35:10z,37,44,17.09,8.7,12.7,13.83,8.7,12.7,13.83
2019/04/01T06:35:43z,37,44,17.09,8.73,12.13,12.93,8.73,12.13,12.93
2019/04/01T06:37:00z,37,44,17.09,9.48,13.24,15.5,9.48,13.24,15.5
2019/04/01T06:38:20z,36,44,16.18,8.8,13.57,16.57,8.8,13.57,16.57
2019/04/01T06:39:40z,36,44,16.18,8.5,13.32,15.86,8.5,13.32,15.86
2019/04/01T06:41:00z,36,44,16.18,9.09,13.23,17.89,9.09,13.23,17.89
2019/04/01T06:42:20z,37,45,17.61,7.54,11.57,14.59,7.54,11.57,14.59
2019/04/01T06:43:40z,35,45,15.78,7.18,11.59,13.59,7.18,11.59,13.59
2019/04/01T06:45:00z,37,45,17.61,7.63,11.78,14.59,7.63,11.78,14.59
2019/04/01T06:46:23z,36,45,16.7,7.69,11.91,14.82,7.69,11.91,14.82
2019/04/01T06:47:40z,37,45,17.61,9.33,13.61,15.46,9.33,13.61,15.46
2019/04/01T06:48:13z,37,45,17.61,5.2,6.87,6.87,5.2,6.87,6.87
2019/04/01T06:49:31z,36,44,16.18,9.37,14.57,15.52,9.37,14.57,15.52
2019/04/01T06:50:51z,36,45,16.7,8.69,13.29,16.13,8.69,13.29,16.13
2019/04/01T06:52:11z,36,44,16.18,8.39,14,16.11,8.39,14,16.11
2019/04/01T06:53:31z,37,45,17.61,8.7,14.23,16.91,8.7,14.23,16.91
2019/04/01T06:54:51z,36,45,16.7,8.36,13.06,13.94,8.36,13.06,13.94
2019/04/01T06:56:11z,37,45,17.61,8.11,11.73,12.59,8.11,11.73,12.59
2019/04/01T06:57:31z,37,45,17.61,8.67,12.67,15.52,8.67,12.67,15.52
2019/04/01T06:58:53z,37,45,17.61,8.86,14.5,18.23,8.86,14.5,18.23
2019/04/01T07:00:11z,37,45,17.61,8.96,12.67,14.16,8.96,12.67,14.16
2019/04/01T07:00:44z,36,45,16.7,6.93,8.93,10.73,6.93,8.93,10.73
2019/04/01T07:02:02z,37,44,17.09,8.13,11.87,17.35,8.13,11.87,17.35
2019/04/01T07:03:22z,37,44,17.09,7.39,11.26,13.41,7.39,11.26,13.41
2019/04/01T07:04:42z,37,44,17.09,7.26,12.11,14.09,7.26,12.11,14.09
2019/04/01T07:06:02z,37,44,17.09,8.69,12.98,16.22,8.69,12.98,16.22
2019/04/01T07:07:22z,37,44,17.09,7.5,12.35,15.52,7.5,12.35,15.52
2019/04/01T07:08:42z,36,43,15.65,8.2,13.16,16.8,8.2,13.16,16.8
2019/04/01T07:10:02z,37,44,17.09,8.27,13.98,15.93,8.27,13.98,15.93
2019/04/01T07:11:24z,37,44,17.09,8.55,11.64,13.18,8.55,11.64,13.18
2019/04/01T07:12:42z,37,44,17.09,8.07,12.3,13.17,8.07,12.3,13.17
2019/04/01T07:13:14z,37,44,17.09,6.27,7.07,8.53,6.27,7.07,8.53
2019/04/01T07:14:32z,36,44,16.18,7.39,10.78,13.02,7.39,10.78,13.02
2019/04/01T07:15:52z,36,44,16.18,7.55,12.38,14.96,7.55,12.38,14.96
2019/04/01T07:17:12z,37,45,17.61,7.28,11.63,14.07,7.28,11.63,14.07
2019/04/01T07:18:32z,36,45,16.7,7.11,12.36,15.36,7.11,12.36,15.36
2019/04/01T07:19:52z,36,45,16.7,7.42,9.93,11.73,7.42,9.93,11.73
2019/04/01T07:21:12z,36,45,16.7,7.72,12.76,15.5,7.72,12.76,15.5
2019/04/01T07:22:32z,37,45,17.61,7.7,10.77,12.11,7.7,10.77,12.11
2019/04/01T07:23:54z,37,45,17.61,7.8,12.17,17.02,7.8,12.17,17.02
2019/04/01T07:25:12z,37,45,17.61,7.33,11.46,13,7.33,11.46,13
,,,,,,,,,
 ets Jan  8 2013,,,,,,,,,
,,,,,,,,,
load 0x4010f000,,,,,,,,,
tail 8,,,,,,,,,
chksum 0x2d,,,,,,,,,
csum 0x2d,,,,,,,,,
v0fd86a07,,,,,,,,,
~ld,,,,,,,,,
,,,,,,,,,
,,,,,,,,,
PurpleAir Ver: 3.00,,,,,,,,,
FlashChipRealSize: 2097152,,,,,,,,,
Detecting I2C...,,,,,,,,,
0h00:00.047 32728/1/32720 2019/04/01T07:25:14z:RETRY: Found RTC,,,,,,,,,
0h00:00.462 32872/1/32680 2019/04/01T07:25:15z:BME280 (0x76),,,,,,,,,
2019/04/01T07:25:47z,37,45,17.61,6.2,8.4,9.4,6.2,8.4,9.4
2019/04/01T07:27:05z,37,45,17.61,7.06,12.04,13.47,7.06,12.04,13.47
2019/04/01T07:28:25z,36,45,16.7,7.04,12.04,17.26,7.04,12.04,17.26
2019/04/01T07:29:45z,36,45,16.7,7.41,11.23,12.64,7.41,11.23,12.64
2019/04/01T07:31:05z,36,45,16.7,6.36,10.51,12.4,6.36,10.51,12.4
2019/04/01T07:32:25z,36,45,16.7,6.56,10.11,11.71,6.56,10.11,11.71
2019/04/01T07:33:45z,36,45,16.7,6.76,10.48,11.98,6.76,10.48,11.98
2019/04/01T07:35:05z,36,45,16.7,7.71,11.67,14.38,7.71,11.67,14.38